GW3962 Weather Reports


Display with metric or nautical units.
time (UTC)temp
F
wind
direction
speed
MPH
gust
MPH
rain 1hr
in
rain 24hr
in
rain mn
in
humidity
%
barometer
mb
20260902160932 90 298 4.0 5.0 0.00 0.00 0.00 54 1016.9
20260902160427 90 239 3.0 3.0 0.00 0.00 0.00 54 1017.2
20260902155925 89 196 3.0 3.0 0.00 0.00 0.00 56 1017.0
20260902155420 89 306 2.0 2.0 0.00 0.00 0.00 56 1016.8
20260902154915 89 275 3.0 3.0 0.00 0.00 0.00 56 1016.9
20260902154410 88 300 2.0 3.0 0.00 0.00 0.00 57 1017.1
20260902153909 88 232 4.0 5.0 0.00 0.00 0.00 58 1017.0
20260902153408 87 248 4.0 5.0 0.00 0.00 0.00 58 1017.0
20260902152904 87 274 4.0 5.0 0.00 0.00 0.00 58 1016.9
20260902152400 86 270 5.0 6.0 0.00 0.00 0.00 61 1017.0
20260902151855 86 237 3.0 5.0 0.00 0.00 0.00 61 1017.1
20260902151350 87 323 5.0 8.0 0.00 0.00 0.00 60 1017.3
20260902150845 87 284 2.0 2.0 0.00 0.00 0.00 61 1017.1
20260902150342 86 294 5.0 7.0 0.00 0.00 0.00 61 1016.9
20260902145841 86 287 2.0 2.0 0.00 0.00 0.00 62 1016.9
20260902145336 87 212 4.0 6.0 0.00 0.00 0.00 61 1017.1
20260902144831 86 298 6.0 7.0 0.00 0.00 0.00 61 1016.7
20260902144327 86 268 6.0 7.0 0.00 0.00 0.00 62 1016.7
20260902143821 85 231 5.0 7.0 0.00 0.00 0.00 64 1016.8
20260902143316 85 224 5.0 8.0 0.00 0.00 0.00 64 1016.9
20260902142812 85 239 3.0 5.0 0.00 0.00 0.00 64 1016.9
20260902142308 84 289 4.0 5.0 0.00 0.00 0.00 64 1016.9
20260902141803 83 235 5.0 6.0 0.00 0.00 0.00 69 1016.8
20260902141258 83 213 5.0 7.0 0.00 0.00 0.00 70 1016.8
20260902140752 82 274 3.0 5.0 0.00 0.00 0.00 71 1017.0
20260902140248 82 251 3.0 3.0 0.00 0.00 0.00 71 1016.8
20260902135747 81 206 3.0 5.0 0.00 0.00 0.00 73 1016.9
20260902135243 81 263 5.0 6.0 0.00 0.00 0.00 74 1016.9
20260902134742 80 284 1.0 2.0 0.00 0.00 0.00 75 1017.0
20260902134237 80 241 3.0 5.0 0.00 0.00 0.00 75 1016.8
20260902133733 79 236 3.0 6.0 0.00 0.00 0.00 76 1016.9
20260902133231 79 257 3.0 3.0 0.00 0.00 0.00 77 1016.8
20260902132727 79 226 3.0 3.0 0.00 0.00 0.00 78 1016.6
20260902132217 78 263 4.0 5.0 0.00 0.00 0.00 78 1016.8
20260902131712 78 266 3.0 3.0 0.00 0.00 0.00 79 1016.5
20260902131208 77 270 3.0 3.0 0.00 0.00 0.00 79 1016.3
20260902130703 77 226 4.0 5.0 0.00 0.00 0.00 80 1016.3
20260902130159 77 278 2.0 3.0 0.00 0.00 0.00 80 1016.4
20260902125654 76 238 3.0 3.0 0.00 0.00 0.00 81 1016.2
20260902125150 76 272 2.0 2.0 0.00 0.00 0.00 81 1016.2
20260902124646 76 279 2.0 2.0 0.00 0.00 0.00 81 1016.3
20260902124146 76 271 2.0 2.0 0.00 0.00 0.00 81 1016.2
20260902123637 75 286 1.0 2.0 0.00 0.00 0.00 82 1016.1
20260902123136 75 263 1.0 2.0 0.00 0.00 0.00 82 1016.3
20260902122631 75 291 1.0 1.0 0.00 0.00 0.00 83 1015.9
20260902122126 75 293 1.0 1.0 0.00 0.00 0.00 83 1015.9
20260902121621 75 281 1.0 1.0 0.00 0.00 0.00 83 1015.9
20260902121121 75 287 1.0 1.0 0.00 0.00 0.00 82 1016.1
20260902120617 76 285 1.0 1.0 0.00 0.00 0.00 81 1015.7
20260902120114 76 277 2.0 2.0 0.00 0.00 0.00 80 1015.9
20260902115609 76 239 3.0 3.0 0.00 0.00 0.00 80 1015.8
20260902115105 76 237 3.0 3.0 0.00 0.00 0.00 80 1016.1
20260902114601 76 285 1.0 1.0 0.00 0.00 0.00 80 1015.6
20260902114100 76 287 1.0 1.0 0.00 0.00 0.00 80 1015.6
20260902113555 76 286 1.0 1.0 0.00 0.00 0.00 80 1015.8
20260902113050 76 286 1.0 1.0 0.00 0.00 0.00 80 1015.8
20260902112545 77 286 0.0 1.0 0.00 0.00 0.00 79 1015.6
20260902112043 77 259 2.0 2.0 0.00 0.00 0.00 78 1015.8
20260902111538 77 278 1.0 1.0 0.00 0.00 0.00 79 1016.2
20260902111033 76 260 2.0 2.0 0.00 0.00 0.00 80 1015.7
20260902110530 76 264 2.0 2.0 0.00 0.00 0.00 80 1015.8
20260902110026 76 278 1.0 1.0 0.00 0.00 0.00 80 1015.8
20260902105525 77 263 1.0 2.0 0.00 0.00 0.00 79 1016.1
20260902105020 76 249 2.0 2.0 0.00 0.00 0.00 79 1015.8
20260902104515 76 264 2.0 2.0 0.00 0.00 0.00 80 1015.7
20260902104010 76 283 1.0 2.0 0.00 0.00 0.00 79 1015.5
20260902103505 77 278 1.0 1.0 0.00 0.00 0.00 79 1015.9
20260902103000 77 278 1.0 1.0 0.00 0.00 0.00 78 1015.8
20260902102457 77 275 1.0 1.0 0.00 0.00 0.00 77 1015.8
20260902101953 77 267 0.0 1.0 0.00 0.00 0.00 76 1015.7
20260902101448 78 267 1.0 1.0 0.00 0.00 0.00 76 1015.9
20260902100947 78 267 1.0 1.0 0.00 0.00 0.00 75 1015.9
20260902100442 78 267 1.0 1.0 0.00 0.00 0.00 75 1015.9
20260902095941 78 267 1.0 1.0 0.00 0.00 0.00 75 1015.9
20260902095436 78 267 0.0 0.0 0.00 0.00 0.00 75 1015.7
20260902094935 78 267 0.0 0.0 0.00 0.00 0.00 76 1015.9
20260902094431 79 267 0.0 0.0 0.00 0.00 0.00 75 1015.7
20260902093926 79 267 1.0 1.0 0.00 0.00 0.00 74 1015.7
20260902093421 79 266 0.0 1.0 0.00 0.00 0.00 74 1015.7
20260902092920 79 266 1.0 1.0 0.00 0.00 0.00 74 1015.9
20260902092410 79 262 2.0 2.0 0.00 0.00 0.00 74 1016.1
20260902091904 79 253 2.0 2.0 0.00 0.00 0.00 74 1015.9
20260902091354 79 284 1.0 2.0 0.00 0.00 0.00 74 1015.7
20260902090851 80 266 2.0 2.0 0.00 0.00 0.00 74 1015.6
20260902090351 80 241 3.0 3.0 0.00 0.00 0.00 74 1016.1
20260902085849 80 207 3.0 3.0 0.00 0.00 0.00 74 1016.2
20260902085345 80 238 3.0 3.0 0.00 0.00 0.00 74 1015.7
20260902084840 80 216 3.0 3.0 0.00 0.00 0.00 75 1015.9
20260902084337 80 237 3.0 3.0 0.00 0.00 0.00 74 1015.8
20260902083831 80 245 2.0 2.0 0.00 0.00 0.00 74 1015.9
20260902083325 80 225 3.0 3.0 0.00 0.00 0.00 74 1016.1
20260902082820 80 225 3.0 3.0 0.00 0.00 0.00 74 1015.8
20260902082317 80 187 2.0 3.0 0.00 0.00 0.00 74 1016.1
20260902081813 80 189 4.0 5.0 0.00 0.00 0.00 74 1015.9
20260902081309 80 207 5.0 5.0 0.00 0.00 0.00 73 1015.9
20260902080803 81 237 3.0 3.0 0.00 0.00 0.00 74 1015.9
20260902080301 81 212 3.0 5.0 0.00 0.00 0.00 74 1016.1
20260902075759 81 233 3.0 3.0 0.00 0.00 0.00 74 1015.7
20260902075255 81 191 5.0 6.0 0.00 0.00 0.00 74 1015.9
20260902074750 81 214 4.0 5.0 0.00 0.00 0.00 74 1016.1
20260902074246 81 243 4.0 5.0 0.00 0.00 0.00 75 1016.1
20260902073741 81 197 4.0 5.0 0.00 0.00 0.00 74 1016.2
20260902073236 81 292 1.0 2.0 0.00 0.00 0.00 74 1016.3
20260902072733 81 240 2.0 2.0 0.00 0.00 0.00 74 1016.3
20260902072228 81 187 3.0 5.0 0.00 0.00 0.00 74 1016.1
20260902071725 81 206 3.0 3.0 0.00 0.00 0.00 74 1016.4
20260902071219 81 185 4.0 5.0 0.00 0.00 0.00 74 1016.2
20260902070716 81 237 2.0 3.0 0.00 0.00 0.00 74 1016.4
20260902070215 81 181 3.0 3.0 0.00 0.00 0.00 74 1016.4
20260902065714 81 202 3.0 3.0 0.00 0.00 0.00 74 1016.3
20260902065210 82 203 3.0 3.0 0.00 0.00 0.00 73 1016.4
20260902064705 82 196 3.0 5.0 0.00 0.00 0.00 73 1016.2
20260902064200 82 207 4.0 5.0 0.00 0.00 0.00 73 1016.3
20260902063656 82 194 4.0 6.0 0.00 0.00 0.00 73 1016.5
20260902063150 82 205 3.0 3.0 0.00 0.00 0.00 73 1016.3
20260902062650 82 228 3.0 3.0 0.00 0.00 0.00 73 1016.3
20260902062145 82 250 3.0 3.0 0.00 0.00 0.00 73 1016.3
20260902061644 82 231 3.0 3.0 0.00 0.00 0.00 72 1016.1
20260902061140 83 223 5.0 6.0 0.00 0.00 0.00 72 1016.3
20260902060636 83 194 4.0 5.0 0.00 0.00 0.00 71 1016.3
20260902060132 83 196 3.0 5.0 0.00 0.00 0.00 72 1016.4
20260902055628 83 250 3.0 3.0 0.00 0.00 0.00 71 1016.3
20260902055123 83 189 5.0 7.0 0.00 0.00 0.00 71 1016.2
20260902054617 83 210 5.0 6.0 0.00 0.00 0.00 71 1016.3
20260902054113 84 195 5.0 6.0 0.00 0.00 0.00 70 1016.5
20260902053608 84 221 5.0 7.0 0.00 0.00 0.00 70 1016.2
20260902053103 84 171 5.0 6.0 0.00 0.00 0.00 69 1016.2
20260902052603 84 199 5.0 6.0 0.00 0.00 0.00 69 1016.1
20260902052058 84 207 4.0 5.0 0.00 0.00 0.00 69 1016.3
20260902051558 84 220 6.0 7.0 0.00 0.00 0.00 68 1016.1
20260902051057 85 224 3.0 5.0 0.00 0.00 0.00 67 1016.3
20260902050552 85 193 6.0 7.0 0.00 0.00 0.00 66 1015.9
20260902050048 85 203 6.0 8.0 0.00 0.00 0.00 66 1016.2
20260902045543 85 196 5.0 7.0 0.00 0.00 0.00 66 1016.3
20260902045039 85 212 3.0 3.0 0.00 0.00 0.00 65 1016.2
20260902044539 86 190 5.0 7.0 0.00 0.00 0.00 65 1016.2
20260902044035 86 179 8.0 11.0 0.00 0.00 0.00 64 1016.3
20260902043530 86 141 4.0 6.0 0.00 0.00 0.00 64 1016.2
20260902043025 86 163 6.0 7.0 0.00 0.00 0.00 63 1015.9
20260902042524 86 181 5.0 8.0 0.00 0.00 0.00 63 1016.2
20260902042019 86 216 4.0 5.0 0.00 0.00 0.00 62 1016.3
20260902041514 86 206 3.0 5.0 0.00 0.00 0.00 62 1016.3
20260902041009 87 205 2.0 2.0 0.00 0.00 0.00 61 1015.9
20260902040509 87 185 4.0 5.0 0.00 0.00 0.00 60 1015.9
20260902040008 87 166 4.0 5.0 0.00 0.00 0.00 60 1016.2
20260902035502 87 103 3.0 3.0 0.00 0.00 0.00 61 1016.2
20260902034956 87 120 4.0 6.0 0.00 0.00 0.00 60 1015.8
20260902034451 87 181 3.0 3.0 0.00 0.00 0.00 60 1015.9
20260902033950 87 217 3.0 3.0 0.00 0.00 0.00 60 1015.7
20260902033450 87 167 2.0 3.0 0.00 0.00 0.00 60 1015.6
20260902032948 87 189 3.0 3.0 0.00 0.00 0.00 59 1015.8
20260902032443 87 129 3.0 5.0 0.00 0.00 0.00 59 1015.5
20260902031933 88 151 4.0 6.0 0.00 0.00 0.00 59 1015.6
20260902031428 88 212 2.0 3.0 0.00 0.00 0.00 59 1015.5
20260902030924 88 193 4.0 6.0 0.00 0.00 0.00 58 1015.4
20260902030419 88 219 4.0 5.0 0.00 0.00 0.00 58 1015.2
20260902025917 88 231 3.0 5.0 0.00 0.00 0.00 58 1015.3
20260902025413 88 181 4.0 5.0 0.00 0.00 0.00 57 1015.1
20260902024908 88 193 4.0 7.0 0.00 0.00 0.00 57 1015.0
20260902024403 89 195 3.0 3.0 0.00 0.00 0.00 56 1015.0
20260902023858 89 203 4.0 6.0 0.00 0.00 0.00 56 1015.2
20260902023354 89 124 3.0 3.0 0.00 0.00 0.00 55 1015.0
20260902022853 89 137 4.0 6.0 0.00 0.00 0.00 54 1014.8
20260902022348 89 127 8.0 10.0 0.00 0.00 0.00 54 1014.6
20260902021844 89 162 4.0 5.0 0.00 0.00 0.00 53 1014.6
20260902021339 90 126 5.0 6.0 0.00 0.00 0.00 52 1014.5
20260902020835 90 282 3.0 3.0 0.00 0.00 0.00 52 1014.4
20260902020331 90 107 5.0 6.0 0.00 0.00 0.00 51 1014.4
20260902015826 90 146 3.0 5.0 0.00 0.00 0.00 50 1014.5
20260902015322 91 117 4.0 6.0 0.00 0.00 0.00 50 1014.1
20260902014817 91 92 4.0 5.0 0.00 0.00 0.00 49 1014.4
20260902014314 91 6 2.0 2.0 0.00 0.00 0.00 49 1014.2
20260902013812 91 87 2.0 3.0 0.00 0.00 0.00 49 1014.1
20260902013308 91 133 4.0 6.0 0.00 0.00 0.00 49 1014.1
20260902012803 91 81 5.0 6.0 0.00 0.00 0.00 48 1013.8
20260902012259 91 105 3.0 6.0 0.00 0.00 0.00 49 1013.8
20260902011754 91 128 5.0 7.0 0.00 0.00 0.00 49 1014.1
20260902011254 92 112 5.0 8.0 0.00 0.00 0.00 48 1013.9
20260902010748 92 94 5.0 6.0 0.00 0.00 0.00 48 1013.8
20260902010244 92 339 3.0 5.0 0.00 0.00 0.00 47 1013.8
20260902005742 92 111 2.0 2.0 0.00 0.00 0.00 47 1013.8
20260902005237 93 90 4.0 5.0 0.00 0.00 0.00 46 1013.9
20260902004737 93 67 4.0 7.0 0.00 0.00 0.00 45 1013.7
20260902004232 93 332 1.0 1.0 0.00 0.00 0.00 45 1014.1
20260902003727 93 38 3.0 3.0 0.00 0.00 0.00 45 1013.9
20260902003222 93 75 4.0 7.0 0.00 0.00 0.00 45 1014.0
20260902002713 94 90 5.0 6.0 0.00 0.00 0.00 45 1014.0
20260902002212 94 94 3.0 7.0 0.00 0.00 0.00 45 1014.0
20260902001708 94 98 4.0 5.0 0.00 0.00 0.00 45 1014.0
20260902001208 94 48 4.0 6.0 0.00 0.00 0.00 45 1014.1
20260902000703 95 63 7.0 9.0 0.00 0.00 0.00 44 1014.0
20260902000158 95 95 5.0 7.0 0.00 0.00 0.00 44 1014.0
20260901235657 95 59 3.0 5.0 0.00 0.00 0.00 45 1014.1
20260901235153 95 72 5.0 7.0 0.00 0.00 0.00 44 1013.7
20260901234652 95 90 3.0 7.0 0.00 0.00 0.00 44 1014.1
20260901234147 96 102 6.0 8.0 0.00 0.00 0.00 44 1013.9
20260901233642 96 84 2.0 3.0 0.00 0.00 0.00 44 1013.9
20260901233138 95 247 1.0 2.0 0.00 0.00 0.00 44 1014.0
20260901232638 96 119 7.0 10.0 0.00 0.00 0.00 44 1014.0
20260901232133 95 80 7.0 8.0 0.00 0.00 0.00 43 1014.1
20260901231630 95 42 1.0 2.0 0.00 0.00 0.00 44 1014.0
20260901231126 95 94 8.0 10.0 0.00 0.00 0.00 44 1013.8
20260901230621 95 128 5.0 7.0 0.00 0.00 0.00 44 1013.9
20260901230115 95 82 6.0 11.0 0.00 0.00 0.00 44 1014.0
20260901225611 96 106 9.0 10.0 0.00 0.00 0.00 43 1013.8
20260901225111 97 84 6.0 7.0 0.00 0.00 0.00 41 1013.9
20260901224607 98 57 6.0 8.0 0.00 0.00 0.00 41 1013.7
20260901224103 99 35 3.0 3.0 0.00 0.00 0.00 41 1014.1
20260901223558 97 317 1.0 1.0 0.00 0.00 0.00 42 1013.8
20260901223053 97 235 3.0 3.0 0.00 0.00 0.00 40 1013.7
20260901222549 98 314 2.0 2.0 0.00 0.00 0.00 40 1014.0
20260901222045 97 303 1.0 1.0 0.00 0.00 0.00 41 1014.1
20260901221541 97 89 6.0 8.0 0.00 0.00 0.00 41 1014.2
20260901221036 98 186 6.0 9.0 0.00 0.00 0.00 41 1013.8
20260901220536 98 62 3.0 5.0 0.00 0.00 0.00 41 1014.1
20260901220035 98 25 3.0 3.0 0.00 0.00 0.00 41 1014.0
20260901215532 99 59 7.0 9.0 0.00 0.00 0.00 40 1013.9
20260901215027 98 109 3.0 5.0 0.00 0.00 0.00 40 1014.1
20260901214526 98 355 2.0 3.0 0.00 0.00 0.00 40 1013.9
20260901214020 100 133 3.0 5.0 0.00 0.00 0.00 41 1014.1
20260901213519 99 77 3.0 5.0 0.00 0.00 0.00 40 1014.0
20260901213014 98 349 3.0 5.0 0.00 0.00 0.00 40 1014.1
20260901212509 98 88 4.0 5.0 0.00 0.00 0.00 40 1014.1
20260901212005 99 56 3.0 5.0 0.00 0.00 0.00 39 1014.3
20260901211500 98 214 3.0 5.0 0.00 0.00 0.00 42 1014.2
20260901210956 99 203 6.0 9.0 0.00 0.00 0.00 41 1014.4
20260901210446 98 64 3.0 3.0 0.00 0.00 0.00 40 1014.4
20260901205942 98 72 4.0 6.0 0.00 0.00 0.00 41 1014.6
20260901205436 96 86 2.0 3.0 0.00 0.00 0.00 43 1014.6
20260901204931 96 103 3.0 3.0 0.00 0.00 0.00 44 1014.8
20260901204428 97 132 7.0 10.0 0.00 0.00 0.00 42 1014.8
20260901203927 100 68 4.0 5.0 0.00 0.00 0.00 39 1014.8
20260901203423 97 25 4.0 6.0 0.00 0.00 0.00 43 1014.8
20260901202918 98 309 3.0 5.0 0.00 0.00 0.00 42 1014.9
20260901202414 99 258 4.0 6.0 0.00 0.00 0.00 42 1015.0
20260901201909 98 133 4.0 6.0 0.00 0.00 0.00 42 1014.9
20260901201408 98 46 3.0 5.0 0.00 0.00 0.00 40 1015.3
20260901200902 96 65 3.0 3.0 0.00 0.00 0.00 43 1015.2
20260901200357 97 100 4.0 6.0 0.00 0.00 0.00 43 1015.2
20260901195856 96 74 7.0 8.0 0.00 0.00 0.00 45 1015.3
20260901195349 95 55 4.0 5.0 0.00 0.00 0.00 44 1015.5
20260901194844 95 110 7.0 8.0 0.00 0.00 0.00 45 1015.4
20260901194339 95 82 5.0 7.0 0.00 0.00 0.00 46 1015.3
20260901193836 97 27 5.0 6.0 0.00 0.00 0.00 45 1015.5
20260901193334 99 69 6.0 9.0 0.00 0.00 0.00 42 1015.6
20260901192829 97 92 5.0 6.0 0.00 0.00 0.00 44 1015.5
20260901192325 95 191 3.0 3.0 0.00 0.00 0.00 46 1015.7
20260901191821 96 302 2.0 2.0 0.00 0.00 0.00 46 1015.9
20260901191316 96 6 1.0 1.0 0.00 0.00 0.00 44 1015.9
20260901190812 96 35 2.0 3.0 0.00 0.00 0.00 44 1016.1
20260901190311 97 348 8.0 10.0 0.00 0.00 0.00 45 1016.2
20260901185810 96 56 2.0 3.0 0.00 0.00 0.00 46 1016.2
20260901185309 96 107 5.0 8.0 0.00 0.00 0.00 45 1016.4
20260901184805 94 259 5.0 6.0 0.00 0.00 0.00 47 1016.4
20260901184300 94 214 5.0 6.0 0.00 0.00 0.00 48 1016.5
20260901183755 95 81 4.0 5.0 0.00 0.00 0.00 46 1016.4
20260901183255 94 308 2.0 2.0 0.00 0.00 0.00 46 1016.8
20260901182751 94 99 6.0 6.0 0.00 0.00 0.00 47 1016.9
20260901182250 96 112 5.0 7.0 0.00 0.00 0.00 47 1016.7
20260901181745 95 100 1.0 2.0 0.00 0.00 0.00 48 1016.8
20260901181240 95 342 1.0 1.0 0.00 0.00 0.00 48 1017.0
20260901180739 93 220 7.0 8.0 0.00 0.00 0.00 50 1016.9
20260901180238 96 18 1.0 1.0 0.00 0.00 0.00 48 1017.0
20260901175737 94 288 4.0 7.0 0.00 0.00 0.00 49 1016.9
20260901175232 93 57 3.0 3.0 0.00 0.00 0.00 51 1017.2
20260901174727 94 68 4.0 6.0 0.00 0.00 0.00 50 1017.4
20260901174223 93 134 3.0 3.0 0.00 0.00 0.00 51 1017.2
20260901173719 93 349 4.0 5.0 0.00 0.00 0.00 53 1017.5
20260901173213 95 85 8.0 9.0 0.00 0.00 0.00 51 1017.6
20260901172710 93 131 3.0 5.0 0.00 0.00 0.00 50 1017.5
20260901172208 92 235 2.0 2.0 0.00 0.00 0.00 53 1017.6
20260901171707 93 100 6.0 7.0 0.00 0.00 0.00 53 1017.8
20260901171201 92 146 3.0 3.0 0.00 0.00 0.00 55 1017.7
20260901170700 92 352 2.0 3.0 0.00 0.00 0.00 55 1017.8
20260901170155 93 42 3.0 5.0 0.00 0.00 0.00 54 1017.9
20260901165654 93 12 1.0 1.0 0.00 0.00 0.00 53 1018.0
20260901165149 91 302 1.0 1.0 0.00 0.00 0.00 55 1017.9
20260901164645 92 286 1.0 2.0 0.00 0.00 0.00 55 1017.9
20260901164140 91 296 1.0 2.0 0.00 0.00 0.00 55 1018.0
20260901163635 90 129 3.0 5.0 0.00 0.00 0.00 58 1018.0
20260901163134 91 137 7.0 8.0 0.00 0.00 0.00 55 1018.1
20260901162630 90 305 1.0 1.0 0.00 0.00 0.00 58 1018.0
20260901162124 90 254 3.0 3.0 0.00 0.00 0.00 59 1018.2
20260901161623 89 95 2.0 2.0 0.00 0.00 0.00 60 1018.4
20260901161122 88 252 1.0 2.0 0.00 0.00 0.00 62 1018.2